Wind_Speed
17 17 17 17 17 17 18 19 20 19 17 16 15 14 13 12 10 10 10 9 8 7 8 8 9 10 10 10 10 10 9 9 9 9 8 8 8 8 8 8 8 7 7 6 6 6 6 6 6
17 17 17 17 18 18 19 20 20 19 18 16 15 14 13 12 12 10 10 9 7 7 7 8 9 9 10 10 10 9 9 9 9 9 8 8 8 7 7 7 7 7 7 7 6 6 5 6 6
17 17 17 17 18 19 20 20 20 19 17 16 16 15 13 12 11 10 9 9 7 7 7 8 8 9 9 9 9 9 9 9 9 8 8 7 7 7 7 7 7 7 7 6 6 6 6 6 6
16 17 17 17 18 19 20 21 20 19 17 16 16 15 13 12 10 10 9 8 7 7 7 8 8 9 8 9 8 8 9 9 9 8 8 7 7 7 7 7 7 7 6 6 6 6 6 6 6
16 16 17 17 18 19 20 20 20 20 17 15 15 14 13 11 10 9 9 8 6 7 8 8 8 8 8 8 8 8 8 8 8 8 8 7 7 7 7 7 6 6 6 5 5 6 6 6 6
15 15 16 17 18 19 20 20 20 19 16 15 15 13 12 11 9 9 8 8 7 7 8 8 8 8 8 8 8 7 7 7 7 7 7 7 7 7 6 6 6 6 5 5 5 5 5 6 6
13 14 15 17 18 19 20 20 20 19 17 16 15 14 12 11 9 9 8 8 8 8 8 8 8 8 8 7 7 7 7 7 7 6 7 7 7 6 6 6 6 6 5 5 5 5 5 6 6
11 12 15 17 18 19 20 20 19 18 17 16 15 14 13 11 10 9 8 8 8 9 8 8 8 8 7 7 7 6 7 6 6 6 6 6 6 6 6 5 5 5 5 5 5 5 5 6 6
10 11 15 17 18 19 19 20 20 19 17 17 16 14 13 11 10 9 9 8 8 8 8 8 7 7 7 7 7 6 6 5 5 5 5 5 6 5 5 5 5 5 5 5 5 6 6 6 6
9 11 14 16 17 18 19 19 19 19 18 17 16 15 13 12 10 10 9 9 8 8 8 8 8 7 6 6 6 6 5 5 5 5 4 5 5 5 5 5 5 5 6 6 5 6 6 6 6
7 10 12 14 16 17 18 19 19 18 17 17 16 15 14 12 11 10 9 9 9 8 7 7 7 7 6 5 5 5 5 5 5 5 4 4 4 5 5 5 5 5 5 5 5 5 5 5 5
6 8 11 14 15 17 17 18 18 17 17 16 16 15 14 13 11 10 10 10 9 8 8 7 7 6 5 5 4 4 4 5 5 5 4 4 3 4 4 4 4 4 5 4 4 4 4 4 4
4 7 10 12 15 16 17 17 17 17 16 15 15 15 14 14 13 12 11 10 9 8 8 7 7 6 5 4 4 4 3 3 4 4 4 3 3 3 3 3 3 3 3 3 3 3 2 2 3
4 6 9 12 14 15 16 16 16 16 15 15 15 15 14 13 13 12 11 10 10 9 8 7 7 6 5 4 3 3 3 3 2 2 3 2 2 2 3 3 3 3 3 2 2 1 1 1 1
2 5 7 9 11 13 14 14 15 15 14 13 13 14 13 13 13 12 11 10 10 9 9 8 7 6 5 4 4 3 3 1 1 2 2 2 1 1 1 2 2 2 1 1 0 0 0 1 1
1 3 5 6 8 10 11 12 14 13 13 12 12 12 13 13 12 12 12 11 10 9 9 8 7 6 5 4 3 3 3 2 1 1 2 1 1 0 1 1 1 1 1 1 1 1 2 1 2
3 2 2 4 5 7 8 9 12 13 12 11 11 11 12 12 12 12 12 11 10 10 9 8 7 6 5 4 4 3 2 2 1 1 2 2 2 2 2 3 3 3 3 3 2 3 3 3 4
5 3 2 1 3 4 5 7 9 11 10 10 10 11 11 11 11 11 11 10 10 10 9 8 7 6 5 4 4 3 2 2 3 2 3 3 3 3 4 4 4 5 4 4 4 4 4 5 5
8 7 5 3 1 1 3 5 7 9 9 9 9 10 9 9 10 10 10 10 10 10 9 8 7 6 5 4 4 3 3 3 3 4 4 4 4 4 4 5 5 5 6 5 5 5 6 6 7
10 9 8 6 4 3 3 4 5 7 8 9 9 9 9 9 10 10 10 11 10 10 9 8 7 6 5 5 4 4 3 3 3 4 4 4 5 5 6 5 5 5 6 6 6 6 7 8 9
13 12 11 8 6 5 4 4 5 6 7 7 8 8 8 8 10 10 11 11 11 10 9 9 8 7 6 5 5 5 4 4 4 4 5 5 6 6 5 5 5 6 6 7 7 8 9 9 10
16 14 13 11 9 7 6 5 4 5 6 6 6 7 8 8 10 10 11 11 10 9 9 9 8 8 7 6 6 5 5 5 4 4 4 5 5 4 4 5 6 7 7 8 9 10 10 11 12
18 17 15 13 12 10 8 7 5 5 6 5 5 6 8 8 8 9 10 10 10 10 9 8 8 8 8 7 6 6 5 5 5 5 5 4 4 4 5 5 6 7 8 9 10 10 11 12 13
20 19 18 16 15 13 11 10 6 6 5 5 5 6 7 8 8 8 9 9 10 11 9 8 8 8 7 7 6 6 6 6 5 6 5 5 5 5 6 6 7 7 8 9 10 11 12 13 14
23 21 20 19 17 15 12 11 8 6 5 5 5 6 7 8 8 9 9 10 11 11 10 9 8 8 7 7 7 7 7 6 5 5 6 6 6 6 7 7 8 9 9 10 11 12 13 14 15
24 23 22 20 19 17 15 13 10 7 6 6 6 6 7 7 8 9 9 10 11 10 10 9 9 8 8 7 7 8 8 7 7 6 6 7 7 7 8 8 9 10 10 10 11 13 14 15 15
25 25 23 22 20 19 17 14 11 9 7 7 7 6 7 8 9 9 9 11 10 10 9 9 9 8 8 8 8 8 8 8 7 8 7 6 7 8 8 9 9 9 10 11 12 13 13 14 15
26 25 25 24 22 20 18 15 12 11 9 8 7 7 8 8 9 9 10 10 10 11 10 10 10 9 8 8 8 8 8 8 7 7 7 7 7 8 8 9 9 10 11 12 12 13 15 15 16
27 26 25 24 23 21 19 16 13 11 10 8 8 7 7 8 9 9 10 10 10 10 10 10 11 10 9 8 9 8 8 8 8 8 8 8 8 9 9 10 10 11 12 13 14 15 15 16 17
28 27 26 24 23 21 20 17 14 12 11 10 9 8 7 9 9 10 11 11 11 11 10 11 11 11 10 9 9 9 9 9 9 8 8 9 9 10 10 10 11 12 13 14 15 15 16 17 17
Wind_Direction
62 60 58 59 60 60 62 63 62 62 60 60 61 62 63 66 67 69 69 70 70 72 74 73 71 69 67 66 65 64 61 59 59 60 61 59 56 57 60 63 62 63 65 68 66 64 70 73 72
63 61 61 62 62 60 61 61 60 58 57 57 60 61 61 63 68 71 70 71 71 70 73 73 72 69 68 67 66 64 61 60 61 62 61 56 53 55 60 64 62 63 65 66 66 67 68 65 71
64 61 63 63 63 63 61 60 58 55 55 56 57 58 60 62 68 70 68 68 68 71 74 75 73 71 70 69 68 65 63 61 62 62 60 56 55 56 59 63 62 62 63 64 65 65 66 67 72
62 61 62 62 62 63 61 59 56 51 51 51 53 55 57 59 65 68 67 65 66 70 73 73 72 71 70 70 69 68 66 64 64 61 58 56 57 59 62 64 65 65 65 64 63 63 64 66 70
65 63 62 60 59 60 60 59 56 51 48 49 52 54 55 56 60 65 68 62 63 68 71 72 71 70 70 70 70 70 68 66 64 59 57 55 56 62 66 65 65 65 65 66 65 62 64 66 69
66 62 60 58 57 58 58 57 54 49 47 48 51 54 55 55 59 66 68 65 66 68 70 71 68 66 68 70 69 68 69 67 63 57 56 56 58 62 64 63 63 63 63 66 65 63 63 66 70
64 59 58 58 58 56 55 54 51 48 46 45 48 54 56 56 58 66 68 65 66 67 67 66 65 65 66 69 67 64 66 66 62 57 55 55 56 59 61 59 60 61 61 65 65 64 65 66 67
64 61 62 61 57 53 53 52 48 46 45 44 46 49 55 58 60 64 67 66 65 65 64 63 63 63 64 68 67 67 65 63 60 56 54 54 55 57 61 60 61 65 69 70 69 69 73 73 71
66 67 66 64 57 53 51 50 48 45 42 41 46 49 51 56 61 62 63 65 64 63 62 60 61 63 64 66 67 67 63 58 55 56 56 58 59 60 63 62 64 71 76 76 75 71 78 76 72
66 70 67 65 61 57 52 49 47 44 41 39 43 47 48 53 55 58 60 61 59 59 60 57 55 57 58 63 64 62 63 57 56 60 63 66 66 65 65 65 71 76 78 77 77 72 78 77 74
62 70 67 64 62 57 53 51 49 45 44 41 41 44 48 49 48 51 56 55 56 57 57 55 49 48 53 60 63 58 61 62 63 63 64 68 69 67 69 71 73 77 81 80 79 78 79 77 74
53 68 66 63 63 57 52 49 49 46 43 41 40 42 44 46 46 46 50 51 52 52 52 51 45 42 45 52 54 51 61 64 64 63 58 61 67 72 77 77 76 80 81 80 80 83 80 73 74
60 74 68 67 65 56 49 45 44 44 41 38 40 41 41 44 45 47 48 49 47 46 45 46 42 37 36 39 44 46 55 60 63 59 52 58 67 66 85 83 87 103 94 85 83 85 87 75 70
59 74 69 67 65 57 51 44 40 40 40 39 40 40 40 42 42 44 44 46 44 41 40 41 40 38 35 37 39 32 35 51 57 51 45 47 68 73 89 97 108 110 107 96 94 87 70 47 34
70 87 75 67 64 55 49 43 37 33 34 35 38 40 38 37 37 37 38 40 40 37 36 37 35 32 35 47 43 26 20 18 25 39 34 43 61 73 89 107 122 126 122 101 53 252 318 308 305
165 106 83 65 63 53 46 41 33 26 26 29 32 36 34 32 31 31 30 33 36 36 29 26 31 29 29 35 28 18 18 11 3 26 14 357 336 327 235 209 214 201 208 246 287 283 270 280 292
198 154 90 66 63 52 49 37 30 22 21 24 28 30 31 29 28 26 24 25 30 29 26 21 26 24 18 14 12 15 15 355 347 344 336 329 314 280 257 255 245 239 242 252 272 280 276 273 277
220 220 230 52 56 53 46 33 22 15 17 16 22 24 24 25 23 22 25 23 21 22 24 23 23 18 6 358 356 356 341 319 325 317 314 314 300 268 262 261 253 256 255 256 264 274 269 270 272
229 231 242 260 315 19 24 22 16 11 13 11 12 13 15 15 18 20 20 18 15 15 17 20 18 18 14 2 355 358 348 328 316 320 308 305 295 271 271 273 265 264 262 263 265 273 272 273 277
230 236 244 254 263 294 338 358 4 3 5 6 5 7 7 13 17 15 14 11 9 8 5 8 10 11 13 8 2 355 339 320 303 306 302 298 278 268 273 273 268 266 266 263 267 274 279 280 281
230 239 246 254 262 275 303 331 348 358 359 0 359 3 7 12 11 9 6 3 3 2 359 357 359 1 4 1 349 341 334 321 305 296 289 285 281 273 263 262 263 262 266 267 272 276 282 283 283
231 240 245 252 259 266 282 303 329 345 355 357 355 358 3 4 5 4 1 357 356 356 355 357 357 354 353 351 344 338 331 324 312 302 291 283 288 284 269 258 258 264 269 271 272 276 280 280 282
230 238 246 250 254 262 275 284 302 322 342 349 345 344 349 353 357 2 3 1 360 358 355 356 352 351 349 348 344 340 334 325 317 307 300 290 286 287 269 264 262 263 268 271 275 279 283 283 282
230 236 244 249 252 259 272 281 288 305 319 327 324 330 341 342 345 352 357 2 1 355 354 354 352 350 348 346 343 335 330 325 313 308 301 295 286 278 269 267 269 272 278 277 277 280 284 285 284
230 235 240 246 252 258 265 274 282 285 296 311 314 323 331 334 336 341 345 350 352 352 352 354 353 348 342 338 336 329 321 314 312 312 303 299 288 278 277 273 272 275 279 279 280 283 286 287 286
233 236 240 246 253 256 261 268 275 274 281 298 309 316 316 329 336 335 337 341 344 344 346 350 348 343 339 334 331 326 319 312 310 309 303 298 295 285 279 277 276 276 279 282 283 286 290 288 287
234 236 240 244 249 254 259 264 268 268 272 287 297 305 311 317 331 333 333 334 338 341 344 343 340 342 340 338 332 327 324 321 317 309 301 296 297 289 283 282 280 281 283 286 289 291 292 291 291
232 234 237 241 247 252 257 259 265 264 274 277 282 294 303 309 318 326 327 328 334 340 344 342 343 345 339 333 329 326 325 328 325 314 302 298 299 298 291 285 286 287 289 292 294 294 295 295 295
231 232 235 240 246 251 255 257 262 267 273 275 276 289 301 308 310 317 322 325 327 333 340 338 337 340 342 337 332 326 321 322 320 313 311 309 305 305 302 295 291 291 292 294 295 295 295 295 298
229 232 235 239 245 250 254 256 258 265 268 271 277 285 300 311 308 308 310 313 319 326 331 330 329 331 333 331 332 334 330 325 321 314 310 312 306 302 300 296 293 293 291 292 293 295 296 297 298
Height
5900 5899 5898 5897 5896 5895 5893 5892 5891 5890 5890 5890 5889 5888 5888 5888 5889 5891 5889 5888 5888 5888 5888 5887 5887 5887 5887 5886 5887 5887 5887 5887 5887 5887 5887 5887 5888 5888 5888 5888 5888 5888 5888 5888 5888 5888 5888 5888 5888
5903 5902 5902 5900 5898 5896 5895 5894 5893 5892 5892 5891 5891 5890 5890 5889 5889 5890 5889 5889 5890 5889 5889 5889 5888 5888 5888 5888 5888 5888 5888 5888 5888 5888 5888 5889 5889 5889 5889 5889 5889 5889 5889 5890 5890 5890 5890 5890 5890
5905 5905 5904 5902 5900 5899 5898 5896 5895 5894 5894 5893 5892 5892 5891 5891 5891 5891 5891 5891 5891 5891 5890 5890 5889 5889 5889 5889 5889 5889 5889 5889 5889 5889 5889 5889 5889 5890 5890 5890 5890 5890 5890 5891 5891 5891 5891 5891 5891
5908 5908 5907 5905 5902 5901 5899 5898 5897 5896 5896 5895 5894 5894 5893 5893 5892 5892 5892 5892 5892 5892 5891 5890 5890 5890 5890 5890 5890 5890 5890 5890 5890 5890 5890 5890 5890 5890 5891 5891 5891 5891 5891 5892 5892 5892 5892 5892 5892
5910 5909 5908 5906 5905 5903 5901 5900 5899 5898 5897 5897 5896 5895 5895 5895 5894 5893 5893 5893 5893 5893 5892 5891 5891 5891 5891 5891 5891 5891 5891 5891 5891 5891 5891 5891 5891 5892 5892 5892 5892 5892 5893 5893 5893 5893 5893 5893 5893
5912 5911 5910 5908 5907 5905 5904 5902 5901 5900 5900 5899 5898 5897 5896 5896 5896 5895 5895 5895 5894 5893 5893 5892 5892 5892 5892 5892 5892 5892 5892 5892 5892 5892 5892 5892 5893 5893 5893 5893 5893 5893 5893 5894 5894 5894 5894 5894 5894
5914 5913 5911 5910 5909 5907 5906 5904 5903 5903 5902 5901 5900 5899 5898 5898 5897 5896 5896 5896 5895 5894 5894 5893 5893 5893 5893 5893 5893 5893 5893 5893 5893 5893 5893 5893 5893 5894 5894 5894 5894 5894 5894 5894 5895 5895 5895 5895 5895
5915 5915 5913 5912 5911 5910 5908 5907 5906 5905 5904 5903 5902 5900 5899 5899 5899 5898 5897 5897 5896 5896 5895 5895 5894 5894 5894 5894 5894 5893 5894 5894 5894 5894 5894 5894 5894 5894 5895 5895 5895 5895 5895 5895 5896 5896 5896 5896 5896
5917 5917 5915 5914 5913 5912 5911 5910 5909 5908 5906 5905 5904 5902 5901 5901 5900 5899 5899 5898 5897 5897 5896 5896 5895 5895 5895 5895 5894 5894 5894 5895 5895 5895 5895 5895 5895 5895 5895 5896 5896 5896 5896 5896 5897 5897 5897 5897 5898
5918 5918 5917 5916 5915 5914 5913 5912 5911 5910 5908 5907 5906 5904 5903 5902 5901 5901 5900 5899 5898 5898 5897 5897 5897 5896 5896 5896 5895 5895 5895 5895 5895 5895 5895 5896 5896 5896 5896 5896 5896 5897 5897 5897 5898 5898 5898 5899 5899
5920 5919 5919 5918 5917 5916 5915 5915 5914 5912 5911 5910 5908 5906 5905 5904 5903 5902 5901 5900 5899 5899 5898 5898 5898 5897 5897 5896 5896 5896 5896 5896 5896 5896 5896 5896 5897 5897 5897 5897 5897 5898 5898 5898 5899 5899 5899 5900 5900
5921 5921 5920 5919 5918 5918 5917 5917 5916 5915 5914 5912 5910 5908 5907 5906 5905 5904 5903 5902 5901 5900 5899 5899 5898 5898 5898 5897 5897 5897 5897 5897 5897 5897 5897 5897 5897 5897 5897 5898 5898 5899 5899 5899 5900 5900 5900 5900 5901
5922 5922 5921 5921 5920 5920 5919 5919 5918 5917 5916 5915 5913 5911 5909 5908 5907 5905 5904 5903 5902 5901 5900 5900 5899 5899 5898 5898 5898 5897 5897 5897 5897 5897 5897 5897 5897 5898 5898 5898 5898 5899 5900 5900 5900 5900 5901 5901 5901
5923 5923 5922 5922 5921 5921 5921 5921 5920 5919 5918 5917 5915 5913 5912 5910 5909 5907 5906 5905 5903 5902 5901 5901 5900 5899 5899 5899 5898 5898 5897 5897 5897 5897 5897 5897 5897 5898 5898 5898 5899 5899 5900 5900 5900 5901 5901 5901 5901
5923 5924 5923 5923 5923 5923 5923 5922 5922 5921 5920 5919 5917 5915 5914 5912 5910 5909 5907 5906 5904 5903 5902 5901 5901 5900 5899 5899 5899 5898 5898 5898 5897 5897 5897 5897 5898 5898 5898 5898 5899 5899 5900 5900 5900 5901 5901 5901 5901
5923 5924 5924 5924 5923 5924 5925 5924 5923 5922 5921 5920 5919 5917 5915 5914 5912 5911 5909 5907 5906 5904 5903 5902 5901 5900 5900 5900 5899 5899 5898 5898 5897 5897 5897 5897 5898 5898 5898 5899 5899 5899 5900 5900 5900 5901 5901 5901 5901
5923 5924 5924 5925 5924 5924 5925 5925 5924 5923 5922 5921 5920 5918 5917 5915 5913 5912 5910 5909 5907 5905 5904 5903 5902 5901 5900 5900 5899 5899 5898 5898 5897 5897 5897 5897 5897 5897 5898 5898 5898 5899 5899 5900 5900 5900 5900 5900 5900
5923 5923 5924 5925 5925 5925 5925 5925 5925 5924 5923 5922 5920 5919 5917 5916 5915 5913 5912 5910 5908 5906 5905 5903 5902 5902 5901 5900 5899 5898 5898 5898 5897 5897 5897 5897 5897 5897 5897 5897 5898 5898 5899 5899 5899 5899 5900 5900 5900
5922 5923 5924 5925 5925 5925 5925 5925 5925 5924 5923 5922 5921 5919 5918 5916 5915 5914 5912 5911 5909 5907 5905 5904 5903 5902 5901 5900 5899 5898 5898 5897 5897 5896 5896 5896 5896 5896 5896 5896 5897 5897 5898 5898 5898 5898 5899 5899 5899
5921 5923 5923 5924 5925 5925 5925 5925 5925 5924 5923 5922 5921 5920 5918 5917 5915 5914 5913 5911 5909 5907 5906 5904 5903 5901 5900 5900 5899 5899 5898 5897 5896 5896 5895 5894 5894 5894 5894 5895 5895 5896 5896 5897 5897 5897 5897 5897 5897
5920 5922 5923 5923 5924 5924 5925 5925 5925 5925 5924 5922 5921 5920 5918 5917 5916 5914 5913 5911 5909 5907 5906 5904 5903 5901 5900 5899 5898 5898 5897 5896 5896 5895 5894 5894 5893 5892 5893 5893 5894 5895 5895 5895 5896 5896 5896 5896 5895
5919 5920 5921 5922 5923 5923 5925 5925 5925 5924 5924 5922 5922 5920 5919 5917 5916 5914 5913 5911 5909 5907 5905 5904 5903 5901 5900 5899 5898 5897 5896 5895 5895 5894 5893 5892 5892 5891 5891 5892 5892 5893 5893 5894 5894 5894 5893 5893 5893
5917 5918 5920 5921 5922 5923 5923 5924 5925 5923 5923 5923 5922 5920 5919 5917 5916 5914 5912 5910 5908 5907 5905 5904 5902 5901 5900 5898 5897 5896 5895 5895 5894 5893 5892 5892 5891 5891 5891 5891 5891 5891 5892 5892 5892 5892 5891 5891 5890
5914 5916 5917 5919 5920 5921 5922 5923 5923 5923 5922 5922 5921 5920 5918 5917 5915 5914 5912 5911 5909 5907 5905 5903 5902 5900 5899 5898 5897 5896 5895 5894 5893 5892 5892 5891 5891 5890 5890 5890 5890 5890 5890 5890 5890 5889 5889 5888 5887
5911 5914 5915 5916 5917 5919 5920 5920 5922 5922 5921 5921 5920 5919 5918 5917 5915 5914 5913 5911 5909 5907 5905 5903 5901 5900 5899 5897 5896 5895 5894 5893 5892 5891 5891 5890 5890 5889 5889 5889 5889 5888 5888 5888 5887 5887 5886 5885 5884
5907 5910 5913 5915 5916 5917 5918 5918 5921 5920 5920 5920 5919 5919 5917 5916 5915 5914 5912 5911 5909 5907 5905 5903 5901 5899 5898 5896 5895 5894 5893 5892 5891 5890 5889 5889 5888 5888 5887 5887 5887 5886 5886 5885 5885 5884 5883 5882 5881
5904 5906 5909 5911 5912 5914 5915 5917 5918 5918 5919 5919 5918 5917 5916 5915 5914 5913 5912 5911 5909 5906 5904 5902 5900 5899 5897 5896 5894 5893 5892 5890 5889 5889 5888 5887 5887 5886 5886 5885 5885 5884 5884 5883 5882 5881 5880 5879 5878
5900 5903 5905 5907 5909 5911 5913 5914 5916 5916 5917 5917 5917 5916 5915 5914 5913 5912 5911 5910 5908 5906 5904 5902 5900 5898 5896 5895 5893 5892 5891 5889 5888 5887 5886 5886 5885 5884 5883 5883 5882 5882 5881 5880 5879 5878 5877 5875 5874
5896 5899 5901 5903 5906 5908 5909 5913 5914 5914 5914 5915 5915 5914 5914 5913 5912 5911 5910 5908 5907 5905 5903 5901 5900 5898 5895 5893 5892 5890 5889 5888 5887 5886 5885 5884 5883 5882 5881 5880 5879 5879 5878 5877 5876 5875 5873 5872 5870
5891 5894 5897 5900 5902 5904 5906 5912 5911 5911 5912 5912 5912 5913 5912 5911 5910 5909 5908 5907 5905 5904 5902 5900 5899 5897 5895 5892 5891 5889 5888 5887 5885 5884 5883 5882 5881 5880 5879 5878 5877 5876 5875 5874 5873 5871 5870 5868 5867